Flag for United Kingdom Weather past 2 weeks in Belfast, Northern Ireland, United Kingdom

Now
61 °F

Partly sunny.


Feels Like: 61 °F
Forecast: 44 / 67 °F
Wind: 6 mph from Southeast

Location: Belfast / Harbour

Current Time: Sep 2, 2014 at 7:23:53 PM

Latest Report: Sep 2, 2014 at 6:50 PM


Visibility: N/A

Pressure: 30.21 "Hg

Humidity: 72%

Dew point: 52 °F

Location of BelfastLocation

Historic Weather in Belfast — Graph

°F

Belfast temperature yesterday

Maximum temperature yesterday: 63 °F (at 12:50 PM)
Minimum temperature yesterday: 57 °F (at 6:20 AM)
Average temperature yesterday: 61 °F

Past Weeks' High & Low Weather Summary

 TemperatureHumidityPressure
High68 °F (Aug 31, 3:20 PM)94% (Aug 21, 9:20 AM)30.27 "Hg (Aug 21, 9:20 AM)
Low43 °F (Aug 24, 6:20 AM)48% (Aug 23, 6:20 PM)29.50 "Hg (Aug 29, 6:20 AM)
Average58 °F72%29.90 "Hg
* Reported Aug 18 6:20 PM — Sep 2 6:20 PM, Belfast, Weather by CustomWeather, © 2014

Note: Actual official high and low records may vary slightly from our data, if they occured in-between our weather recording intervals... More about our weather records

Advertising

Belfast weather history for previous 24 hours

 ConditionsComfort  
Time TempWeatherWind HumidityBarometerVisibility
6:20 PM
Sep 2
61 °FPartly sunny.6 mph68%30.21 "HgN/A
5:50 PM61 °FPartly sunny.7 mph72%30.21 "HgN/A
5:20 PM61 °FPartly sunny.8 mph68%30.21 "HgN/A
4:50 PM63 °FPartly sunny.8 mph68%30.21 "HgN/A
4:20 PM63 °FPartly sunny.8 mph64%30.21 "HgN/A
3:50 PM63 °FPartly sunny.9 mph68%30.21 "HgN/A
3:20 PM63 °FBroken clouds.8 mph68%30.24 "HgN/A
2:50 PM61 °FBroken clouds.9 mph72%30.24 "HgN/A
2:20 PM61 °FBroken clouds.9 mph72%30.24 "HgN/A
1:50 PM61 °FPartly sunny.7 mph72%30.24 "HgN/A
1:20 PM63 °FPartly sunny.7 mph73%30.24 "HgN/A
12:50 PM61 °FPartly sunny.6 mph77%30.27 "HgN/A
12:20 PM61 °FPartly sunny.7 mph72%30.27 "HgN/A
11:50 AM61 °FPartly sunny.8 mph77%30.27 "HgN/A
11:20 AM61 °FPartly sunny.7 mph77%30.27 "HgN/A
10:50 AM59 °FPartly sunny.5 mph82%30.27 "HgN/A
10:20 AM59 °FPartly sunny.3 mph82%30.27 "HgN/A
9:50 AM59 °FPartly sunny.2 mph77%30.27 "HgN/A
9:20 AM59 °FPartly sunny.No wind77%30.27 "HgN/A
8:50 AM59 °FPartly sunny.No wind77%30.24 "HgN/A
8:20 AM57 °FPartly sunny.2 mph82%30.24 "HgN/A
7:50 AM57 °FPartly sunny.2 mph82%30.24 "HgN/A
7:20 AM57 °FPassing clouds.2 mph88%30.24 "HgN/A
6:50 AM57 °FPassing clouds.3 mph82%30.24 "HgN/A
6:20 AM57 °FPassing clouds.3 mph82%30.24 "HgN/A
8:50 PM
Sep 1
59 °FPartly sunny.3 mph77%30.21 "HgN/A
8:20 PM59 °FPartly sunny.5 mph77%30.21 "HgN/A
7:50 PM59 °FPartly sunny.6 mph72%30.18 "HgN/A
7:20 PM61 °FBroken clouds.7 mph72%30.18 "HgN/A
Weather by CustomWeather, © 2014

See weather overviewHow to use our weather pages